Location: Unspecified
(0.0000°N, 0.0000°E)
Time: 07:29:30
(UTC+00:00)

HuskySat-1 - Visible Passes

Search period start: 26 June 2022 00:00
Search period end: 06 July 2022 00:00
Orbit: 415 x 427 km, 51.6° (Epoch: 25 June)

Date Brightness Start Highest point End Pass type
(mag) Time Alt. Az. Time Alt. Az. Time Alt. Az.
26 Jun ? 05:35:01 10° SSE 05:37:12 16° SE 05:39:23 10° E visible
26 Jun ? 18:47:35 10° WNW 18:50:18 23° SW 18:53:03 10° S visible
28 Jun ? 05:36:24 10° SW 05:39:48 88° NW 05:43:11 10° NE visible
29 Jun ? 04:50:46 19° S 04:52:42 36° SE 04:55:51 10° ENE visible
30 Jun ? 04:06:06 16° ESE 04:06:06 16° ESE 04:07:49 10° E visible
01 Jul ? 04:54:22 31° WNW 04:54:57 33° NW 04:58:03 10° NNE visible
02 Jul ? 04:09:32 25° NNE 04:09:32 25° NNE 04:11:04 10° NE visible
